Regional Weather Roundup
Issued by NWS

Home | Current Version | Previous Version | Text Only | Print | Product List | Glossary Off
Versions: 1 2 3 4 5 6 7 8 9 10 11 12 13 14 15 16 17 18 19 20 21 22 23 24 25 26 27 28 29 30 31 32 33 34 35 36 37 38 39 40 41 42 43 44 45 46 47 48 49 50

000
ASUS43 KLMK 231502
RWRKY
KENTUCKY REGIONAL WEATHER ROUNDUP
NATIONAL WEATHER SERVICE LOUISVILLE KY
1100 AM EDT FRI JUN 23 2017

NOTE "FAIR" INDICATES FEW OR NO CLOUDS BELOW 12,000 FEET
WITH NO SIGNIFICANT WEATHER AND/OR OBSTRUCTIONS TO VISIBILITY.

KYZ001>023-026-027-061>063-070>075-231600-
WESTERN AND SOUTH CENTRAL KENTUCKY

CITY           SKY/WX    TMP DP  RH WIND       PRES   REMARKS
PADUCAH        HVY RAIN  75  72  90 S5        29.71S FOG
HENDERSON      LGT RAIN  76  73  91 S9        29.73F
OWENSBORO      CLOUDY    78  73  84 S12       29.75F
HOPKINSVILLE   CLOUDY    79  70  73 S13G20    29.76F
BOWLING GREEN  CLOUDY    82  72  71 S17G23    29.81S
GLASGOW        NOT AVBL
$$

KYZ024-025-028>034-038-045-046-053-231600-
NORTH CENTRAL KENTUCKY

CITY           SKY/WX    TMP DP  RH WIND       PRES   REMARKS
LOUISVILLE/SDF PTSUNNY   83  72  69 SW15G28   29.77F
LOUISVILLE/LOU CLOUDY    82  73  74 SW14G21   29.77F
FORT KNOX      PTSUNNY   79  72  79 S14       29.78S
$$

KYZ035>037-039>044-047>052-055>060-089>105-231600-
NORTHEAST KENTUCKY

CITY           SKY/WX    TMP DP  RH WIND       PRES   REMARKS
LEXINGTON      CLOUDY    82  71  69 SW17G24   29.82F
COVINGTON      CLOUDY    78  72  81 SW14G20   29.76S
FRANKFORT      PTSUNNY   82  72  71 S13G23    29.79F
$$

KYZ054-064>069-076>088-106>120-231600-
SOUTHEAST KENTUCKY

CITY           SKY/WX    TMP DP  RH WIND       PRES   REMARKS
JACKSON        CLOUDY    73  70  90 VRB3      29.90F
LONDON         CLOUDY    77  70  79 SW9       29.91S
SOMERSET       CLOUDY    77  68  73 S8        29.90S
MIDDLESBORO    DRIZZLE   73  70  90 S9G21     29.95R
MONTICELLO     CLOUDY    80  71  74 SW15G23   29.90S
$$





USA.gov is the U.S. government's official web portal to all federal, state and local government web resources and services.